Manitowoc, WI

2:36 AM CDT on March 29, 2017 (GMT -0500)
Manitowoc County

Weather History for KMTW - March, 2014

Change the Weather History Date:

Friday, March 7, 2014

  Actual Average Record
Temperature  
Mean Temperature 28 °F -  
Max Temperature 37 °F 37 °F 70 °F (1987)
Min Temperature 19 °F 20 °F 0 °F (1984)
Degree Days  
Heating Degree Days 37    
Moisture  
Dew Point 23 °F    
Average Humidity 75    
Maximum Humidity 85    
Minimum Humidity 59    
Precipitation  
Precipitation 0.00 in - - ()
Sea Level Pressure  
Sea Level Pressure 29.99 in    
Wind  
Wind Speed 10 mph (SSW)    
Max Wind Speed 15 mph    
Max Gust Speed -    
Visibility 8 miles    
Events      
Averages and records for this station are not official NWS values.
T = Trace of Precipitation, MM = Missing Value Source: NWS Daily Summary

Daily Weather History Graph

Daily Weather History Graph

Search for Another Location

Airport or City:

Trip Planner

Search our weather history database for the weather conditions in past years. The results will help you decide how hot, cold, wet, or windy it might be!

Date:

Astronomy

Mar. 07, 2014 Rise Set
Actual Time 6:17 AM CST 5:46 PM CST
Civil Twilight 5:48 AM CST 6:15 PM CST
Nautical Twilight 5:15 AM CST 6:49 PM CST
Astronomical Twilight 4:41 AM CST 7:22 PM CST
Moon 9:56 AM CST (3/7) 12:04 AM CST (3/7)
Length of Visible Light 12h 27m
Length of Day
11h 29m
Waxing Crescent, 42% of the Moon is Illuminated
Mar 7
Waxing Crescent
Mar 8
First Quarter
Mar 16
Full
Mar 23
Last Quarter
Mar 30
New

Hourly Weather History & Observations

Time (CST) Temp. Windchill Dew Point Humidity Pressure Visibility Wind Dir Wind Speed Gust Speed Precip Events Conditions
12:56 AM 21.0 °F 7.6 °F 15.1 °F 78% 30.08 in 10.0 mi SSW 15.0 mph - N/A   Clear
1:56 AM 21.0 °F 11.4 °F 15.1 °F 78% 30.07 in 10.0 mi SSW 8.1 mph - N/A   Clear
2:56 AM 19.0 °F 10.0 °F 14.0 °F 81% 30.07 in 10.0 mi SSW 6.9 mph - N/A   Clear
3:56 AM 19.0 °F 8.2 °F 14.0 °F 81% 30.04 in 9.0 mi South 9.2 mph - N/A   Clear
4:56 AM 19.0 °F 7.5 °F 15.1 °F 85% 30.02 in 9.0 mi South 10.4 mph - N/A   Clear
5:56 AM 19.9 °F 12.1 °F 15.1 °F 81% 30.01 in 10.0 mi South 5.8 mph - N/A   Clear
6:56 AM 21.0 °F 10.6 °F 16.0 °F 81% 30.01 in 8.0 mi South 9.2 mph - N/A   Clear
7:56 AM 26.1 °F 15.0 °F 18.0 °F 71% 29.99 in 9.0 mi South 12.7 mph - N/A   Clear
8:56 AM 30.0 °F 20.0 °F 19.9 °F 66% 29.98 in 9.0 mi South 12.7 mph - N/A   Clear
9:56 AM 33.1 °F 25.5 °F 19.9 °F 59% 29.96 in 8.0 mi South 9.2 mph - N/A   Clear
10:56 AM 35.1 °F 28.6 °F 24.1 °F 64% 29.95 in 8.0 mi South 8.1 mph - N/A   Clear
11:56 AM 33.1 °F 24.4 °F 26.1 °F 75% 29.93 in 6.0 mi South 11.5 mph - N/A   Haze
12:56 PM 33.1 °F 23.4 °F 28.0 °F 82% 29.91 in 5.0 mi South 13.8 mph - N/A   Haze
1:56 PM 34.0 °F 27.2 °F 28.9 °F 82% 29.90 in 4.0 mi South 8.1 mph - N/A   Haze
2:56 PM 36.0 °F 33.3 °F 28.9 °F 76% 29.89 in 5.0 mi East 3.5 mph - N/A   Haze
3:56 PM 37.0 °F - 30.0 °F 76% 29.91 in 5.0 mi Calm Calm - N/A   Haze
4:56 PM 37.9 °F 31.5 °F 28.0 °F 68% 29.93 in 7.0 mi NNW 9.2 mph - N/A   Mostly Cloudy
5:56 PM 37.0 °F 31.0 °F 27.0 °F 67% 29.96 in 6.0 mi NNW 8.1 mph - N/A   Haze
6:56 PM 35.1 °F 27.4 °F 26.1 °F 70% 29.99 in 8.0 mi North 10.4 mph - N/A   Overcast
7:36 PM 33.8 °F 27.0 °F 26.6 °F 75% 29.94 in 7.0 mi North 8.1 mph - N/A   Overcast
7:56 PM 34.0 °F 26.6 °F 26.1 °F 73% 30.03 in 7.0 mi North 9.2 mph - N/A   Overcast
8:19 PM 33.8 °F 25.3 °F 26.6 °F 75% 29.96 in 7.0 mi North 11.5 mph - N/A   Overcast
8:50 PM 33.8 °F 26.4 °F 26.6 °F 75% 29.97 in 7.0 mi North 9.2 mph - N/A   Overcast
8:56 PM 33.1 °F 26.1 °F 26.1 °F 75% 30.05 in 7.0 mi North 8.1 mph - N/A   Overcast
9:30 PM 33.8 °F 27.7 °F 26.6 °F 75% 30.00 in 7.0 mi North 6.9 mph - N/A   Overcast
9:56 PM 33.1 °F 25.5 °F 26.1 °F 75% 30.08 in 7.0 mi North 9.2 mph - N/A   Overcast
10:56 PM 32.0 °F 23.6 °F 26.1 °F 79% 30.08 in 8.0 mi North 10.4 mph - N/A   Overcast
11:56 PM 32.0 °F 23.6 °F 27.0 °F 82% 30.11 in 9.0 mi North 10.4 mph - N/A   Overcast